FW1564 Weather Reports


Display with metric or nautical units.
time (UTC)temp
F
wind
direction
speed
MPH
gust
MPH
rain 1hr
in
rain 24hr
in
rain mn
in
humidity
%
barometer
mb
20260906140834 73 121 3.0 8.0 0.00 0.00 0.00 76 1023.0
20260906140749 73 180 3.0 11.0 0.00 0.00 0.00 76 1023.0
20260906134834 74 66 2.0 8.0 0.00 0.00 0.00 75 1023.2
20260906133834 73 131 6.0 8.0 0.00 0.00 0.00 75 1023.0
20260906132834 74 267 5.0 10.0 0.00 0.00 0.00 75 1023.2
20260906131834 73 210 4.0 8.0 0.00 0.00 0.00 75 1023.1
20260906130834 74 83 2.0 8.0 0.00 0.00 0.00 73 1023.1
20260906125845 74 111 1.0 8.0 0.00 0.00 0.00 74 1023.0
20260906125316 74 149 2.0 8.0 0.00 0.00 0.00 74 1023.1
20260906123834 74 96 2.0 9.0 0.00 0.00 0.00 74 1023.3
20260906122833 74 76 5.0 8.0 0.00 0.00 0.00 72 1023.1
20260906121834 74 177 3.0 8.0 0.00 0.00 0.00 73 1023.2
20260906121308 73 143 3.0 8.0 0.00 0.00 0.00 74 1023.4
20260906115822 74 166 3.0 9.0 0.00 0.00 0.00 72 1023.1
20260906114823 73 78 2.0 8.0 0.00 0.00 0.00 71 1023.1
20260906113822 74 181 3.0 10.0 0.00 0.00 0.00 69 1023.3
20260906112823 75 238 7.0 9.0 0.00 0.00 0.00 70 1023.3
20260906111823 73 83 2.0 8.0 0.00 0.00 0.00 72 1023.1
20260906105822 75 190 8.0 9.0 0.00 0.00 0.00 69 1023.3
20260906104823 73 211 4.0 8.0 0.00 0.00 0.00 72 1023.2
20260906103824 74 106 2.0 8.0 0.00 0.00 0.00 70 1023.3
20260906102821 73 136 4.0 7.0 0.00 0.00 0.00 72 1023.3
20260906101822 74 167 3.0 9.0 0.00 0.00 0.00 72 1023.2
20260906101305 73 165 3.0 6.0 0.00 0.00 0.00 73 1023.0
20260906095822 74 91 4.0 7.0 0.00 0.00 0.00 73 1023.0
20260906094822 73 157 3.0 7.0 0.00 0.00 0.00 73 1023.0
20260906093826 73 115 2.0 6.0 0.00 0.00 0.00 74 1022.9
20260906092822 72 176 5.0 7.0 0.00 0.00 0.00 75 1022.9
20260906091823 72 89 0.0 3.0 0.00 0.00 0.00 75 1022.7
20260906091300 70 33 1.0 2.0 0.00 0.00 0.00 77 1022.4
20260906085822 70 12 0.0 3.0 0.00 0.00 0.00 79 1022.5
20260906085259 68 3 2.0 3.0 0.00 0.00 0.00 81 1022.3
20260906083822 67 4 2.0 4.0 0.00 0.00 0.00 84 1022.3
20260906082822 66 354 3.0 6.0 0.00 0.00 0.00 83 1022.3
20260906081822 65 1 2.0 6.0 0.00 0.00 0.00 83 1022.3
20260906080822 65 350 2.0 4.0 0.00 0.00 0.00 84 1022.5
20260906080250 65 322 4.0 6.0 0.00 0.00 0.00 84 1022.4
20260906074810 64 344 4.0 6.0 0.00 0.00 0.00 85 1022.4
20260906073811 64 347 4.0 6.0 0.00 0.00 0.00 86 1022.1
20260906072811 64 339 3.0 6.0 0.00 0.00 0.00 86 1022.1
20260906072256 64 350 3.0 6.0 0.00 0.00 0.00 86 1022.2
20260906070810 63 349 3.0 6.0 0.00 0.00 0.00 87 1022.0
20260906065809 63 343 3.0 6.0 0.00 0.00 0.00 87 1022.0
20260906064810 64 1 2.0 4.0 0.00 0.00 0.00 87 1021.8
20260906063810 64 342 4.0 4.0 0.00 0.00 0.00 86 1021.8
20260906062810 64 332 3.0 7.0 0.00 0.00 0.00 86 1021.8
20260906061810 63 351 2.0 4.0 0.00 0.00 0.00 87 1021.9
20260906060810 63 347 3.0 7.0 0.00 0.00 0.00 88 1021.7
20260906055810 63 336 3.0 6.0 0.00 0.00 0.00 88 1021.6
20260906054810 63 339 3.0 4.0 0.00 0.00 0.00 87 1021.5
20260906053810 64 342 2.0 6.0 0.00 0.00 0.00 86 1021.5
20260906052810 64 12 3.0 6.0 0.00 0.00 0.00 86 1021.6
20260906051810 64 357 4.0 6.0 0.00 0.00 0.00 86 1021.3
20260906050810 64 345 4.0 6.0 0.00 0.00 0.00 86 1021.3
20260906050252 64 342 4.0 6.0 0.00 0.00 0.00 86 1021.2
20260906045248 64 340 4.0 6.0 0.00 0.00 0.00 85 1021.3
20260906044247 65 356 3.0 6.0 0.00 0.00 0.00 84 1021.2
20260906043208 65 347 4.0 7.0 0.00 0.00 0.00 84 1021.6
20260906042847 65 339 4.0 7.0 0.00 0.00 0.00 84 1021.3
20260906040810 65 341 5.0 7.0 0.00 0.00 0.00 85 1021.2
20260906035810 64 343 3.0 6.0 0.00 0.00 0.00 86 1021.6
20260906034810 64 340 2.0 4.0 0.00 0.00 0.00 87 1021.3
20260906033810 63 349 2.0 6.0 0.00 0.00 0.00 87 1021.2
20260906032811 64 344 4.0 6.0 0.00 0.00 0.00 87 1021.3
20260906031810 63 27 3.0 6.0 0.00 0.00 0.00 87 1021.5
20260906030811 64 354 5.0 7.0 0.00 0.00 0.00 86 1021.2
20260906025809 64 13 5.0 7.0 0.00 0.00 0.00 86 1021.3
20260906024810 64 344 3.0 6.0 0.00 0.00 0.00 87 1021.5
20260906023811 64 7 3.0 6.0 0.00 0.00 0.00 86 1021.6
20260906023248 64 335 3.0 6.0 0.00 0.00 0.00 86 1021.7
20260906021810 65 348 4.0 6.0 0.00 0.00 0.00 85 1021.5
20260906020811 65 344 4.0 6.0 0.00 0.00 0.00 84 1022.0
20260906020250 65 346 2.0 4.0 0.00 0.00 0.00 84 1021.9
20260906014810 65 343 2.0 4.0 0.00 0.00 0.00 85 1022.0
20260906013809 65 343 3.0 4.0 0.00 0.00 0.00 85 1022.0
20260906012810 65 349 2.0 4.0 0.00 0.00 0.00 85 1022.1
20260906011810 66 345 3.0 3.0 0.00 0.00 0.00 85 1022.1
20260906010810 66 348 3.0 4.0 0.00 0.00 0.00 84 1022.2
20260906005810 66 344 3.0 4.0 0.00 0.00 0.00 85 1022.3
20260906005255 65 345 2.0 4.0 0.00 0.00 0.00 86 1022.2
20260906003810 65 339 2.0 3.0 0.00 0.00 0.00 85 1022.4
20260906002810 66 341 2.0 4.0 0.00 0.00 0.00 85 1022.3
20260906001810 66 332 3.0 6.0 0.00 0.00 0.00 85 1022.3
20260906000810 66 323 3.0 6.0 0.00 0.00 0.00 84 1022.4
20260905235810 66 340 4.0 6.0 0.00 0.00 0.00 85 1022.5
20260905234810 66 346 3.0 4.0 0.00 0.00 0.00 86 1022.5
20260905234252 66 28 2.0 4.0 0.00 0.00 0.00 86 1022.4
20260905232810 66 335 3.0 4.0 0.00 0.00 0.00 85 1022.5
20260905232253 66 355 3.0 6.0 0.00 0.00 0.00 84 1022.5
20260905230810 66 336 4.0 6.0 0.00 0.00 0.00 84 1022.6
20260905230243 66 342 2.0 6.0 0.00 0.00 0.00 85 1022.5
20260905224810 66 335 2.0 4.0 0.00 0.00 0.00 84 1022.5
20260905223810 67 342 2.0 4.0 0.00 0.00 0.00 84 1022.6
20260905222810 66 349 2.0 4.0 0.00 0.00 0.00 83 1022.6
20260905222732 67 347 3.0 4.0 0.00 0.00 0.00 84 1022.3
20260905220810 67 359 3.0 6.0 0.00 0.00 0.00 84 1022.2
20260905215811 67 340 2.0 3.0 0.00 0.00 0.00 85 1022.5
20260905214810 67 351 2.0 2.0 0.00 0.00 0.00 83 1022.3
20260905213810 67 347 1.0 3.0 0.00 0.00 0.00 82 1022.3
20260905212810 67 346 2.0 3.0 0.00 0.00 0.00 81 1022.3
20260905211810 67 335 1.0 3.0 0.00 0.00 0.00 82 1022.2
20260905210810 67 349 2.0 3.0 0.00 0.00 0.00 81 1021.9
20260905210252 67 344 2.0 3.0 0.00 0.00 0.00 83 1021.5
20260905204810 68 0 0.0 2.0 0.00 0.00 0.00 86 1021.5
20260905204248 69 93 1.0 1.0 0.00 0.00 0.00 88 1021.3
20260905202810 69 99 0.0 2.0 0.00 0.00 0.00 88 1021.3
20260905202249 69 115 0.0 1.0 0.00 0.00 0.00 88 1021.2
20260905200810 69 111 0.0 2.0 0.00 0.00 0.00 88 1020.8
20260905195811 69 133 2.0 3.0 0.00 0.00 0.00 89 1020.8
20260905194811 69 154 1.0 3.0 0.00 0.00 0.00 89 1020.8
20260905193810 69 155 2.0 3.0 0.00 0.00 0.00 88 1020.6
20260905192810 69 149 1.0 4.0 0.00 0.00 0.00 88 1020.4
20260905192246 69 134 1.0 3.0 0.00 0.00 0.00 88 1020.6
20260905190810 69 160 2.0 4.0 0.00 0.00 0.00 88 1020.6
20260905185811 69 128 1.0 4.0 0.00 0.00 0.00 88 1020.5
20260905184810 69 111 2.0 4.0 0.00 0.00 0.00 88 1020.4
20260905183810 69 160 3.0 4.0 0.00 0.00 0.00 88 1020.4
20260905182811 69 135 2.0 3.0 0.00 0.00 0.00 88 1020.7
20260905181810 69 160 2.0 4.0 0.00 0.00 0.00 87 1020.7
20260905180810 69 147 1.0 3.0 0.00 0.00 0.00 87 1020.8
20260905175810 69 198 2.0 4.0 0.00 0.00 0.00 87 1020.7
20260905175720 69 99 1.0 4.0 0.00 0.00 0.00 87 1020.7
20260905173810 69 102 2.0 4.0 0.00 0.00 0.00 87 1020.7
20260905172811 70 121 2.0 6.0 0.00 0.00 0.00 87 1020.7
20260905171810 70 43 0.0 6.0 0.00 0.00 0.00 87 1020.7
20260905170810 70 140 3.0 6.0 0.00 0.00 0.00 85 1020.6
20260905170247 70 112 4.0 6.0 0.00 0.00 0.00 85 1020.5
20260905165244 70 82 0.0 4.0 0.00 0.00 0.00 84 1020.5
20260905163810 70 326 1.0 4.0 0.00 0.00 0.00 84 1020.5
20260905162810 70 153 1.0 7.0 0.00 0.00 0.00 85 1020.6
20260905161810 71 107 5.0 6.0 0.00 0.00 0.00 84 1020.3
20260905160810 71 101 3.0 7.0 0.00 0.00 0.00 83 1020.3
20260905160300 71 112 2.0 7.0 0.00 0.00 0.00 83 1020.5
20260905154810 71 82 2.0 6.0 0.00 0.00 0.00 83 1020.5
20260905153810 71 167 4.0 7.0 0.00 0.00 0.00 82 1020.6
20260905152810 71 136 2.0 7.0 0.00 0.00 0.00 82 1021.0
20260905151810 71 129 3.0 8.0 0.00 0.00 0.00 82 1020.7
20260905150810 72 147 4.0 9.0 0.00 0.00 0.00 81 1020.6
20260905145810 73 164 3.0 9.0 0.00 0.00 0.00 80 1020.7
20260905144811 73 213 2.0 8.0 0.00 0.00 0.00 79 1020.8
20260905143810 73 94 3.0 8.0 0.00 0.00 0.00 78 1021.0
20260905142758 73 98 5.0 8.0 0.00 0.00 0.00 77 1020.8
20260905141758 74 162 3.0 8.0 0.00 0.00 0.00 77 1020.8